Satellite: UO-22
Catalog number: 21575
Epoch time:      05089.72653704
Element set:    0369
Inclination:      098.2367 deg
RA of node:       058.0499 deg
Eccentricity:    0.0006817
Arg of perigee:   333.6283 deg
Mean anomaly:     026.4557 deg
Mean motion:   14.39472189 rev/day
Decay rate:        2.0e-08 rev/day^2
Epoch rev:           71921
Checksum:              329

Satellite: KO-23
Catalog number: 22077
Epoch time:      05089.85505721
Element set:    0433
Inclination:      066.0890 deg
RA of node:       310.5027 deg
Eccentricity:    0.0015635
Arg of perigee:   275.1207 deg
Mean anomaly:     084.8027 deg
Mean motion:   12.86429014 rev/day
Decay rate:       -3.7e-07 rev/day^2
Epoch rev:           59351
Checksum:              290

Satellite: AO-27
Catalog number: 22825
Epoch time:      05090.83151049
Element set:     100
Inclination:      098.2511 deg
RA of node:       090.4309 deg
Eccentricity:    0.0009400
Arg of perigee:   128.6294 deg
Mean anomaly:     231.5720 deg
Mean motion:   14.29120532 rev/day
Decay rate:       -2.5e-07 rev/day^2
Epoch rev:           60017
Checksum:              252

Satellite: IO-26
Catalog number: 22826
Epoch time:      05089.54609502
Element set:    0764
Inclination:      098.2461 deg
RA of node:       090.5022 deg
Eccentricity:    0.0009589
Arg of perigee:   129.0239 deg
Mean anomaly:     231.1787 deg
Mean motion:   14.29360523 rev/day
Decay rate:        3.2e-07 rev/day^2
Epoch rev:           60005
Checksum:              294

Satellite: KO-25
Catalog number: 22828
Epoch time:      05089.84055654
Element set:      16
Inclination:      098.2387 deg
RA of node:       090.9915 deg
Eccentricity:    0.0010884
Arg of perigee:   108.2274 deg
Mean anomaly:     252.0095 deg
Mean motion:   14.29675013 rev/day
Decay rate:        4.0e-08 rev/day^2
Epoch rev:           56832
Checksum:              311

Satellite: TO-31
Catalog number: 25396
Epoch time:      05089.69535976
Element set:    0213
Inclination:      098.5366 deg
RA of node:       159.2796 deg
Eccentricity:    0.0003375
Arg of perigee:   065.5177 deg
Mean anomaly:     294.6367 deg
Mean motion:   14.23662676 rev/day
Decay rate:       -4.3e-07 rev/day^2
Epoch rev:           34924
Checksum:              353

Satellite: GO-32
Catalog number: 25397
Epoch time:      05089.81748905
Element set:     708
Inclination:      098.5258 deg
RA of node:       157.0645 deg
Eccentricity:    0.0002129
Arg of perigee:   088.7899 deg
Mean anomaly:     271.3530 deg
Mean motion:   14.23072975 rev/day
Decay rate:      -1.08e-06 rev/day^2
Epoch rev:           34918
Checksum:              344

Satellite: UO-36
Catalog number: 25693
Epoch time:      05090.41765987
Element set:      47
Inclination:      064.5585 deg
RA of node:       162.5415 deg
Eccentricity:    0.0033009
Arg of perigee:   221.7231 deg
Mean anomaly:     138.1340 deg
Mean motion:   14.78484487 rev/day
Decay rate:      .00000000 rev/day^2
Epoch rev:           32032
Checksum:              284

Satellite: SO-41
Catalog number: 26545
Epoch time:      05088.51674950
Element set:    0038
Inclination:      064.5591 deg
RA of node:       183.2304 deg
Eccentricity:    0.0041818
Arg of perigee:   319.1096 deg
Mean anomaly:     040.6835 deg
Mean motion:   14.80051370 rev/day
Decay rate:       2.37e-06 rev/day^2
Epoch rev:           24314
Checksum:              289

Satellite: MO-46
Catalog number: 26548
Epoch time:      05089.68010899
Element set:    0143
Inclination:      064.5585 deg
RA of node:       163.2110 deg
Eccentricity:    0.0039642
Arg of perigee:   309.3727 deg
Mean anomaly:     050.3882 deg
Mean motion:   14.82666133 rev/day
Decay rate:       4.65e-06 rev/day^2
Epoch rev:           24365
Checksum:              319

Satellite: SO-42
Catalog number: 26549
Epoch time:      05089.73111632
Element set:    0101
Inclination:      064.5577 deg
RA of node:       187.6877 deg
Eccentricity:    0.0042496
Arg of perigee:   324.4316 deg
Mean anomaly:     035.3965 deg
Mean motion:   14.78933525 rev/day
Decay rate:       1.50e-06 rev/day^2
Epoch rev:           24315
Checksum:              315

Satellite: NO-44
Catalog number: 26931
Epoch time:      05089.81112603
Element set:    0005
Inclination:      067.0517 deg
RA of node:       069.6483 deg
Eccentricity:    0.0007005
Arg of perigee:   259.5311 deg
Mean anomaly:     100.5000 deg
Mean motion:   14.29370885 rev/day
Decay rate:       1.04e-06 rev/day^2
Epoch rev:           18256
Checksum:              268

Satellite: AO-49
Catalog number: 27605
Epoch time:      05090.81679066
Element set:     699
Inclination:      064.5605 deg
RA of node:       010.5697 deg
Eccentricity:    0.0085053
Arg of perigee:   255.4373 deg
Mean anomaly:     103.7293 deg
Mean motion:   14.72062928 rev/day
Decay rate:        6.5e-07 rev/day^2
Epoch rev:           12246
Checksum:              321

Satellite: SO-50
Catalog number: 27607
Epoch time:      05089.78369170
Element set:    0680
Inclination:      064.5608 deg
RA of node:       018.9218 deg
Eccentricity:    0.0085732
Arg of perigee:   254.5639 deg
Mean anomaly:     104.5986 deg
Mean motion:   14.70922166 rev/day
Decay rate:       2.11e-06 rev/day^2
Epoch rev:           12220
Checksum:              313

